STARLINK-35642

Last updated on Wed Dec 10 2025 00:02:05 GMT+0000 (Coordinated Universal Time)

1 66398U 25257U 25343.66668981 .00111329 00000+0 27621-2 0 9996 2 66398 53.1598 278.6700 0001318 87.7508 183.4659 15.39516880 6001
UTC large
Height (km)
Speed (km/s)
/
Latitude / Longitude
Inclination (degrees)
Orbital Period (minutes)
Azimuth
Elevation
Range (km)
Doppler Factor

Next 0 passes for location: London (51.5072 / 0.1276)

Sorry there are no passes over London.